Find Starlink 37900

NORAD ID: 69953 Int'l Des: 2026-157 Owner: SPXS Country: US Constellation: starlink operational
LEOCIRCULAR

現在のビュー

3D地球を読み込み中...

About Starlink 37900

Starlink 37900 (NORAD 69953) is a starlink constellation satellite (v2 mini) launched Jul 9, 2026 by SPXS of US. It operates in LEO, CIRCULAR orbit with a mass of 575.00 kg.

次回通過

Passes for default location (London). Set your location on the main map for personalized predictions.

高度履歴

Loading altitude history...

軌道要素

1 69953U 26157L 26237.32400705 .00032341 00000-0 93387-3 0 9990
2 69953 53.1598 96.1261 0001348 79.0656 281.0498 15.35406593 7357
Epoch: Aug 25, 2026 • Age: 21 hours

現在のステータス

高度 460.2 km
遠地点 / 近地点 N/A
速度 7.64 km/s
衛星直下点 2.69°N, 137.21°W
打ち上げ日 Jul 9, 2026
運用期間 0.1 years
タイプ internet

技術仕様

分類 Payload
質量 575.00 kg
乾燥質量 530.00 kg
総質量 575.00 kg
長さ 0.30 m
直径 4.10 m
スパン 29.00 m
形状 Box + pan
製造者 SPXS
バスタイプ Starlink V2MO
フェーズステータス In Orbit
所有者/国 SPXS/US

Most Searched